Location: Feydey
(46.3431°N, 7.0106°E)
Time: 06:54:02
(UTC+00:00)

deb Atmosphere 2 - Pass Details

Date: 31 January 2022
Orbit: 828 x 839 km, 98.6° (Epoch: 21 May)

Event Time Altitude Azimuth Distance (km) Brightness Sun altitude
Rises 03:20:02 0° 34° (NNE) 3,399 ? -37.4°
Reaches altitude 10° 03:24:19 10° 66° (ENE) 2,454 ? -36.6°
Maximum altitude 03:26:07 12° 86° (E) 2,337 ? -36.3°
Drops below altitude 10° 03:27:55 10° 105° (ESE) 2,445 ? -36.0°
Sets 03:32:08 0° 138° (SE) 3,368 ? -35.3°
